Home   Weather   Quito   Past weeks

Flag for Ecuador Past Weather in Quito, Ecuador — Yesterday and Last 2 Weeks

84 °F

Partly sunny.

Feels Like: 86 °F
Forecast: N/A
Wind: 2 mph from North

Location: Cali / Alfonso Bonillaaragon

Current Time: Oct 23, 2016 at 5:12:11 PM

Latest Report: Oct 23, 2016 at 4:00 PM

Visibility: N/A

Pressure: 29.91 "Hg (21.73 "Hg at 2826m altitude)

Humidity: 51%

Dew Point: 64 °F

Location of QuitoLocation

Past Weather in Quito — Graph


Quito Temperature Yesterday

Maximum temperature yesterday: 86 °F (at 12:00 PM)
Minimum temperature yesterday: 68 °F (at 12:00 AM)
Average temperature yesterday: 75 °F

High & Low Weather Summary for the Past Weeks

High90 °F (Oct 13, 2:00 PM)100% (Oct 9, 12:00 AM)30.14 "Hg (Oct 9, 12:00 AM)
Low64 °F (Oct 16, 1:00 AM)49% (Oct 13, 2:00 PM)29.82 "Hg (Oct 8, 4:00 PM)
Average74 °F81%29.97 "Hg
* Reported Oct 8 4:00 PM — Oct 23 4:00 PM, Quito, Weather by CustomWeather, © 2016

Note: Actual official high and low records may vary slightly from our data, if they occured in-between our weather recording intervals... More about our weather records


Quito Weather History for the Previous 24 Hours

Scroll right to see more
Time TempWeatherWind HumidityBarometerVisibility
4:00 PM
Sun, Oct 23
84 °FPartly sunny.2 mph51%29.91 "HgN/A
3:00 PM81 °FPartly sunny.No wind62%29.93 "HgN/A
2:00 PM82 °FPartly sunny.8 mph62%29.97 "HgN/A
1:00 PM82 °FPartly sunny.6 mph62%30.01 "HgN/A
12:00 PM79 °FBroken clouds.5 mph70%30.06 "Hg6 mi
11:00 AM77 °FBroken clouds.3 mph69%30.11 "Hg6 mi
10:00 AM75 °FBroken clouds.3 mph74%30.13 "Hg5 mi
9:00 AM72 °FBroken clouds.3 mph94%30.14 "Hg4 mi
8:00 AM70 °FPartly sunny.3 mph94%30.13 "Hg4 mi
7:00 AM68 °FScattered showers. Partly sunny.3 mph100%30.11 "Hg4 mi
6:00 AM66 °FRain. Broken clouds.6 mph100%30.08 "Hg5 mi
5:00 AM66 °FRain. Partly cloudy.8 mph100%30.04 "Hg4 mi
4:00 AM68 °FThunderstorms. Partly cloudy.7 mph100%30.02 "Hg4 mi
3:00 AM70 °FThunderstorms. Partly cloudy.7 mph94%29.99 "HgN/A
2:00 AM72 °FPartly cloudy.2 mph88%29.99 "HgN/A
1:00 AM70 °FPartly cloudy.3 mph94%30.00 "HgN/A
12:00 AM70 °FPassing clouds.5 mph88%30.01 "HgN/A
11:00 PM
Sat, Oct 22
72 °FPassing clouds.2 mph88%30.03 "HgN/A
10:00 PM73 °FPartly cloudy.7 mph78%30.02 "HgN/A
9:00 PM73 °FPartly cloudy.8 mph78%30.01 "HgN/A
8:00 PM75 °FPartly cloudy.10 mph74%29.99 "HgN/A
7:00 PM77 °FPassing clouds.6 mph69%29.95 "HgN/A
6:00 PM77 °FPassing clouds.8 mph69%29.92 "HgN/A
5:00 PM79 °FPartly sunny.15 mph70%29.89 "HgN/A
Weather by CustomWeather, © 2016

See weather overviewHow to use our weather pages